Location: Unspecified
(0.0000°N, 0.0000°E)
Time: 02:41:05
(UTC+00:00)

A-11 Canister half - Visible Passes

Search period start: 24 November 2014 00:00
Search period end: 04 December 2014 00:00
Orbit: 1525 x 1685 km, 47.3° (Epoch: 23 November)

Date Brightness Start Highest point End Pass type
(mag) Time Alt. Az. Time Alt. Az. Time Alt. Az.
24 Nov 10.7 20:16:12 10° SSE 20:20:33 15° SE 20:20:33 15° SE visible
24 Nov 10.9 22:16:51 10° SW 22:18:51 18° SW 22:18:51 18° SW visible
25 Nov 10.7 19:55:13 10° SSE 19:59:54 14° SE 20:00:14 14° SE visible
25 Nov 10.6 21:55:20 10° SSW 21:58:32 24° SSW 21:58:32 24° SSW visible
26 Nov 10.7 19:34:22 10° SSE 19:38:16 13° SE 19:39:57 12° SE visible
26 Nov 10.3 21:33:50 10° SSW 21:38:16 31° SSW 21:38:16 31° SSW visible
27 Nov 10.8 19:13:46 10° SSE 19:16:38 11° SE 19:19:30 10° ESE visible
27 Nov 10.0 21:12:20 10° SSW 21:18:03 39° SSW 21:18:03 39° SSW visible
28 Nov 10.8 18:54:00 10° SE 18:54:59 10° SE 18:55:58 10° SE visible
28 Nov 9.6 20:50:52 10° SSW 20:57:52 48° S 20:57:52 48° S visible
29 Nov 9.4 20:29:24 10° SSW 20:37:45 54° SSE 20:37:45 54° SSE visible
29 Nov 11.2 22:35:36 10° WSW 22:36:04 11° WSW 22:36:04 11° WSW visible
30 Nov 9.2 20:07:57 10° SSW 20:17:32 54° SE 20:17:40 54° SE visible
30 Nov 11.0 22:13:50 10° WSW 22:16:00 17° WSW 22:16:00 17° WSW visible
01 Dec 9.3 19:46:30 10° SSW 19:55:59 50° SE 19:57:38 47° ESE visible
01 Dec 10.6 21:52:04 10° WSW 21:55:58 24° W 21:55:58 24° W visible
02 Dec 9.4 19:25:05 10° SSW 19:34:25 47° SE 19:37:39 37° E visible
02 Dec 10.3 21:30:21 10° WSW 21:35:59 31° W 21:35:59 31° W visible
03 Dec 9.5 19:03:40 10° SSW 19:12:51 44° SE 19:17:42 28° ENE visible
03 Dec 9.9 21:08:38 10° WSW 21:16:03 39° WNW 21:16:03 39° WNW visible
